sat.trackr.live / text

‹ back to catalog

ONEWEB-0225

NORAD 48799 · 2021-045AJ

PAYLOAD ACTIVE UNKNOWN

§ Identity

Operator
Country
UK
Launch date
2021-05-28
Launch site
VOSTO
Launch vehicle
Mass (kg)
RCS (m²)

Purposes: comms

External: N2YO · Heavens-Above · Gunter

§ Orbital elements

Epoch: 2026-09-09T22:31:30.074592Z

Period
109.46 min
Inclination
87.8975°
Eccentricity
0.0002332
Mean motion
13.15546904 rev/d
Perigee alt
1,200.0 km
Apogee alt
1,203.5 km
Semi-major
7,579.9 km
B*
-1.9976e-4
RAAN
242.3021°
Arg perigee
73.6109°
Mean anomaly
286.5278°
Rev number
25,556

§ Raw data

ONEWEB-02251 48799U 21045AJ  26252.93854253 -.00000062  00000+0 -19976-3 0  99992 48799  87.8975 242.3021 0002332  73.6109 286.5278 13.15546904255562

JSON: /api/v1/satellites/48799 · /tle

For live sub-satellite position, see the globe view (requires WebGL).

§ Visibility from observer

Set your observer location to see the next 7 days of passes ≥ 10°. The values pass through the URL so the page stays shareable.

No JS? Fill the form by hand. The geolocation button needs JavaScript.